,,PA_Meas_PMT16A,,PR_Meas_QMR101_102,,RH_Meas_QMH101,,SR_Meas_QMS101,,TA_Meas_QMH101,,GenWind,,GenWind,
time,status,PA,status,PR,status,RH,status,SR,status,TA,status,DirAvg,status,SpdAvg,
2010-05-06, 00:00:04,VALID,915.169,VALID,0,VALID,97.3129,VALID,0,VALID,21.3786,VALID,136,VALID,0,
2010-05-06, 00:01:04,VALID,915.14,VALID,0,VALID,97.3281,VALID,0,VALID,21.4193,VALID,136,VALID,0,
2010-05-06, 00:02:04,VALID,915.135,VALID,0,VALID,97.3434,VALID,0,VALID,21.4388,VALID,136,VALID,0,
2010-05-06, 00:03:04,VALID,915.133,VALID,0,VALID,97.3434,VALID,0,VALID,21.4778,VALID,136,VALID,0.267188,
2010-05-06, 00:04:04,VALID,915.111,VALID,0,VALID,97.3434,VALID,0,VALID,21.4762,VALID,136,VALID,0.235156,
2010-05-06, 00:05:04,VALID,915.099,VALID,0,VALID,97.351,VALID,0,VALID,21.4957,VALID,136,VALID,0.319531,
2010-05-06, 00:06:04,VALID,915.084,VALID,0,VALID,97.3586,VALID,0,VALID,21.5559,VALID,136,VALID,0.406641,
2010-05-06, 00:07:04,VALID,915.056,VALID,0,VALID,97.351,VALID,0,VALID,21.5347,VALID,136,VALID,0.357422,
2010-05-06, 00:08:04,VALID,915.04,VALID,0,VALID,97.351,VALID,0,VALID,21.5152,VALID,136,VALID,0.491406,
2010-05-06, 00:09:04,VALID,915.021,VALID,0,VALID,97.3434,VALID,0,VALID,21.4973,VALID,136,VALID,0.601563,
2010-05-06, 00:10:04,VALID,915.003,VALID,0,VALID,97.351,VALID,0,VALID,21.4583,VALID,136,VALID,0.735547,
2010-05-06, 00:11:04,VALID,914.986,VALID,0,VALID,97.351,VALID,0,VALID,21.4388,VALID,136,VALID,0.48125,
2010-05-06, 00:12:04,VALID,914.953,VALID,0,VALID,97.351,VALID,0,VALID,21.4193,VALID,136,VALID,0.364453,
2010-05-06, 00:13:04,VALID,914.938,VALID,0,VALID,97.3663,VALID,0,VALID,21.4193,VALID,136,VALID,0.611719,
2010-05-06, 00:14:04,VALID,914.931,VALID,0,VALID,97.3358,VALID,0,VALID,21.4177,VALID,136,VALID,0.5875,
2010-05-06, 00:15:04,VALID,914.893,VALID,0,VALID,97.3663,VALID,0,VALID,21.4567,VALID,136,VALID,0.424609,
2010-05-06, 00:16:04,VALID,914.905,VALID,0,VALID,97.3434,VALID,0,VALID,21.4762,VALID,136,VALID,0.449219,
2010-05-06, 00:17:04,VALID,914.871,VALID,0,VALID,97.3663,VALID,0,VALID,21.4957,VALID,136,VALID,0.271484,
2010-05-06, 00:18:04,VALID,914.877,VALID,0,VALID,97.351,VALID,0,VALID,21.4973,VALID,136,VALID,0.233203,
2010-05-06, 00:19:04,VALID,914.883,VALID,0,VALID,97.3586,VALID,0,VALID,21.4973,VALID,136,VALID,0.343359,
2010-05-06, 00:20:04,VALID,914.843,VALID,0,VALID,97.351,VALID,0,VALID,21.5168,VALID,136,VALID,0.51875,
2010-05-06, 00:21:04,VALID,914.793,VALID,0,VALID,97.3434,VALID,0,VALID,21.4372,VALID,136,VALID,0.757813,
2010-05-06, 00:22:04,VALID,914.8,VALID,0,VALID,97.3358,VALID,0,VALID,21.3786,VALID,136,VALID,1.04844,
2010-05-06, 00:23:04,VALID,914.814,VALID,0,VALID,97.351,VALID,0,VALID,21.3803,VALID,136,VALID,0.819922,
2010-05-06, 00:24:04,VALID,914.819,VALID,0,VALID,97.351,VALID,0,VALID,21.3396,VALID,136,VALID,0.727344,
2010-05-06, 00:25:04,VALID,914.832,VALID,0,VALID,97.351,VALID,0,VALID,21.3201,VALID,136,VALID,0.638281,
2010-05-06, 00:26:04,VALID,914.843,VALID,0,VALID,97.3281,VALID,0,VALID,21.3412,VALID,136,VALID,0.565234,
2010-05-06, 00:27:04,VALID,914.874,VALID,0,VALID,97.351,VALID,0,VALID,21.3201,VALID,136,VALID,0.770703,
2010-05-06, 00:28:04,VALID,914.877,VALID,0,VALID,97.351,VALID,0,VALID,21.2811,VALID,136,VALID,0.738672,
2010-05-06, 00:29:04,VALID,914.916,VALID,0,VALID,97.3663,VALID,0,VALID,21.3006,VALID,136,VALID,1.02148,
2010-05-06, 00:30:04,VALID,914.921,VALID,0,VALID,97.351,VALID,0,VALID,21.3608,VALID,136,VALID,0.527344,
2010-05-06, 00:31:04,VALID,914.894,VALID,0,VALID,97.3663,VALID,0,VALID,21.3591,VALID,136,VALID,0.688672,
2010-05-06, 00:32:04,VALID,914.903,VALID,0,VALID,97.3586,VALID,0,VALID,21.3786,VALID,136,VALID,0.573828,
2010-05-06, 00:33:04,VALID,914.92,VALID,0,VALID,97.3815,VALID,0,VALID,21.3786,VALID,136,VALID,0.564062,
2010-05-06, 00:34:04,VALID,914.887,VALID,0,VALID,97.3815,VALID,0,VALID,21.3998,VALID,136,VALID,0.575781,
2010-05-06, 00:35:04,VALID,914.895,VALID,0,VALID,97.3815,VALID,0,VALID,21.3981,VALID,136,VALID,0.64375,
2010-05-06, 00:36:04,VALID,914.866,VALID,0,VALID,97.3663,VALID,0,VALID,21.3981,VALID,136,VALID,0.601563,
2010-05-06, 00:37:04,VALID,914.877,VALID,0,VALID,97.3815,VALID,0,VALID,21.4388,VALID,136,VALID,0.264062,
2010-05-06, 00:38:04,VALID,914.881,VALID,0,VALID,97.3815,VALID,0,VALID,21.4388,VALID,136,VALID,0.14375,
2010-05-06, 00:39:04,VALID,914.893,VALID,0,VALID,97.3586,VALID,0,VALID,21.4372,VALID,136,VALID,0,
2010-05-06, 00:40:04,VALID,914.914,VALID,0,VALID,97.3815,VALID,0,VALID,21.4583,VALID,136,VALID,0,
2010-05-06, 00:41:04,VALID,914.907,VALID,0,VALID,97.3739,VALID,0,VALID,21.4778,VALID,136,VALID,0,
2010-05-06, 00:42:04,VALID,914.886,VALID,0,VALID,97.3815,VALID,0,VALID,21.4957,VALID,136,VALID,0,
2010-05-06, 00:43:04,VALID,914.855,VALID,0,VALID,97.3891,VALID,0,VALID,21.5363,VALID,136,VALID,0,
2010-05-06, 00:44:04,VALID,914.871,VALID,0,VALID,97.3815,VALID,0,VALID,21.5754,VALID,136,VALID,0,
2010-05-06, 00:45:05,VALID,914.838,VALID,0,VALID,97.3663,VALID,0,VALID,21.5932,VALID,136,VALID,0,
2010-05-06, 00:46:05,VALID,914.83,VALID,0,VALID,97.3663,VALID,0.107441,VALID,21.5152,VALID,136,VALID,0.149219,
2010-05-06, 00:47:05,VALID,914.811,VALID,0,VALID,97.3358,VALID,0,VALID,21.416,VALID,136,VALID,0.848047,
2010-05-06, 00:48:05,VALID,914.777,VALID,0,VALID,97.3663,VALID,0.107441,VALID,21.4372,VALID,136,VALID,0.918359,
2010-05-06, 00:49:05,VALID,914.773,VALID,0,VALID,97.3739,VALID,0,VALID,21.4177,VALID,136,VALID,0.849219,
2010-05-06, 00:50:05,VALID,914.749,VALID,0,VALID,97.3586,VALID,0,VALID,21.4177,VALID,136,VALID,0.83125,
2010-05-06, 00:51:05,VALID,914.721,VALID,0,VALID,97.3891,VALID,0.107441,VALID,21.4567,VALID,136,VALID,0.637109,
2010-05-06, 00:52:05,VALID,914.705,VALID,0,VALID,97.3815,VALID,0.107441,VALID,21.4762,VALID,136,VALID,0.617969,
2010-05-06, 00:53:05,VALID,914.652,VALID,0,VALID,97.3739,VALID,0,VALID,21.5152,VALID,136,VALID,0.526172,
2010-05-06, 00:54:05,VALID,914.623,VALID,0,VALID,97.3815,VALID,0,VALID,21.5152,VALID,136,VALID,0.517187,
2010-05-06, 00:55:05,VALID,914.641,VALID,0,VALID,97.3968,VALID,0,VALID,21.5542,VALID,136,VALID,0.758594,
2010-05-06, 00:56:05,VALID,914.642,VALID,0,VALID,97.3739,VALID,0,VALID,21.5526,VALID,136,VALID,0.926562,
2010-05-06, 00:57:05,VALID,914.623,VALID,0,VALID,97.3815,VALID,0.107441,VALID,21.5721,VALID,136,VALID,1.13945,
2010-05-06, 00:58:05,VALID,914.59,VALID,0,VALID,97.3891,VALID,0.107441,VALID,21.5526,VALID,136,VALID,1.10586,
2010-05-06, 00:59:05,VALID,914.589,VALID,0,VALID,97.3663,VALID,0,VALID,21.5932,VALID,136,VALID,0.830859,
2010-05-06, 01:00:05,VALID,914.568,VALID,0,VALID,97.3586,VALID,0.107441,VALID,21.5737,VALID,136,VALID,0.728906,
2010-05-06, 01:01:05,VALID,914.552,VALID,0,VALID,97.3739,VALID,0.107441,VALID,21.5721,VALID,136,VALID,0.485547,
2010-05-06, 01:02:05,VALID,914.516,VALID,0,VALID,97.3739,VALID,0,VALID,21.5932,VALID,136,VALID,0.435156,
2010-05-06, 01:03:05,VALID,914.502,VALID,0,VALID,97.351,VALID,0,VALID,21.5916,VALID,136,VALID,0.228516,
2010-05-06, 01:04:05,VALID,914.478,VALID,0,VALID,97.3586,VALID,0.107441,VALID,21.6128,VALID,136,VALID,0.311328,
2010-05-06, 01:05:05,VALID,914.455,VALID,0,VALID,97.351,VALID,0,VALID,21.5932,VALID,136,VALID,0.237109,
2010-05-06, 01:06:05,VALID,914.433,VALID,0,VALID,97.3663,VALID,0,VALID,21.5932,VALID,136,VALID,0.332812,
2010-05-06, 01:07:05,VALID,914.401,VALID,0,VALID,97.3663,VALID,0.107441,VALID,21.6128,VALID,136,VALID,0.333203,
2010-05-06, 01:08:05,VALID,914.39,VALID,0,VALID,97.3815,VALID,0.107441,VALID,21.6128,VALID,136,VALID,0.576563,
2010-05-06, 01:09:05,VALID,914.366,VALID,0,VALID,97.3739,VALID,0.107441,VALID,21.6128,VALID,136,VALID,0.599609,
2010-05-06, 01:10:05,VALID,914.34,VALID,0,VALID,97.3739,VALID,0,VALID,21.5932,VALID,136,VALID,0.685156,
2010-05-06, 01:11:05,VALID,914.295,VALID,0,VALID,97.3739,VALID,0,VALID,21.6128,VALID,136,VALID,0.842188,
2010-05-06, 01:12:05,VALID,914.262,VALID,0,VALID,97.3739,VALID,0,VALID,21.6323,VALID,136,VALID,0.673437,
2010-05-06, 01:13:05,VALID,914.214,VALID,0,VALID,97.3815,VALID,0,VALID,21.5721,VALID,136,VALID,0.63125,
2010-05-06, 01:14:05,VALID,914.207,VALID,0,VALID,97.3815,VALID,0,VALID,21.5932,VALID,136,VALID,0.686719,
2010-05-06, 01:15:05,VALID,914.184,VALID,0,VALID,97.3891,VALID,0,VALID,21.5754,VALID,136,VALID,0.733984,
2010-05-06, 01:16:05,VALID,914.158,VALID,0,VALID,97.3815,VALID,0,VALID,21.5347,VALID,136,VALID,0.728906,
2010-05-06, 01:17:05,VALID,914.106,VALID,0,VALID,97.3739,VALID,0,VALID,21.5559,VALID,136,VALID,0.885547,
2010-05-06, 01:18:05,VALID,914.134,VALID,0,VALID,97.3815,VALID,0,VALID,21.5542,VALID,136,VALID,0.849609,
2010-05-06, 01:19:05,VALID,914.108,VALID,0,VALID,97.3663,VALID,0,VALID,21.5559,VALID,136,VALID,0.853125,
2010-05-06, 01:20:05,VALID,914.058,VALID,0,VALID,97.3663,VALID,0,VALID,21.5363,VALID,136,VALID,0.416016,
2010-05-06, 01:21:05,VALID,914.066,VALID,0,VALID,97.3815,VALID,0,VALID,21.5363,VALID,136,VALID,0.654688,
2010-05-06, 01:22:05,VALID,914.05,VALID,0,VALID,97.3663,VALID,0,VALID,21.5363,VALID,136,VALID,0.544141,
2010-05-06, 01:23:05,VALID,914.02,VALID,0,VALID,97.3815,VALID,0,VALID,21.5363,VALID,136,VALID,0.483984,
2010-05-06, 01:24:05,VALID,914.035,VALID,0,VALID,97.3968,VALID,0,VALID,21.5168,VALID,136,VALID,0.480078,
2010-05-06, 01:25:05,VALID,914.002,VALID,0,VALID,97.3815,VALID,0,VALID,21.4973,VALID,136,VALID,0.425,
2010-05-06, 01:26:05,VALID,914.008,VALID,0,VALID,97.3891,VALID,0,VALID,21.4778,VALID,136,VALID,0.120312,
2010-05-06, 01:27:05,VALID,913.965,VALID,0,VALID,97.3663,VALID,0,VALID,21.4778,VALID,136,VALID,0.555078,
2010-05-06, 01:28:05,VALID,913.958,VALID,0,VALID,97.3891,VALID,0,VALID,21.4583,VALID,136,VALID,0.687891,
2010-05-06, 01:29:05,VALID,913.94,VALID,0,VALID,97.3891,VALID,0,VALID,21.4778,VALID,136,VALID,0.945703,
2010-05-06, 01:30:05,VALID,913.975,VALID,0,VALID,97.3739,VALID,0,VALID,21.4762,VALID,136,VALID,0.94375,
2010-05-06, 01:31:05,VALID,913.947,VALID,0,VALID,97.3815,VALID,0,VALID,21.4355,VALID,136,VALID,0.66875,
2010-05-06, 01:32:05,VALID,913.935,VALID,0,VALID,97.3891,VALID,0,VALID,21.4372,VALID,136,VALID,0.780078,
2010-05-06, 01:33:05,VALID,913.922,VALID,0,VALID,97.3968,VALID,0,VALID,21.4177,VALID,136,VALID,0.342969,
2010-05-06, 01:34:05,VALID,913.899,VALID,0,VALID,97.3968,VALID,0.107441,VALID,21.3965,VALID,136,VALID,0.355469,
2010-05-06, 01:35:05,VALID,913.883,VALID,0,VALID,97.3891,VALID,0.107441,VALID,21.4177,VALID,136,VALID,0.0898438,
2010-05-06, 01:36:05,VALID,913.878,VALID,0,VALID,97.3891,VALID,0,VALID,21.4177,VALID,136,VALID,0.0742188,
2010-05-06, 01:37:05,VALID,913.841,VALID,0,VALID,97.3815,VALID,0,VALID,21.3981,VALID,136,VALID,0.0195313,
2010-05-06, 01:38:05,VALID,913.828,VALID,0,VALID,97.3891,VALID,0.107441,VALID,21.3981,VALID,136,VALID,0.584766,
2010-05-06, 01:39:05,VALID,913.825,VALID,0,VALID,97.3891,VALID,0,VALID,21.3786,VALID,136,VALID,0.665234,
2010-05-06, 01:40:05,VALID,913.818,VALID,0,VALID,97.412,VALID,0,VALID,21.3803,VALID,136,VALID,0.690625,
2010-05-06, 01:41:05,VALID,913.809,VALID,0,VALID,97.3968,VALID,0,VALID,21.3591,VALID,136,VALID,0.247656,
2010-05-06, 01:42:05,VALID,913.772,VALID,0,VALID,97.4273,VALID,0,VALID,21.3396,VALID,136,VALID,0.537891,
2010-05-06, 01:43:05,VALID,913.798,VALID,0,VALID,97.412,VALID,0,VALID,21.3006,VALID,136,VALID,0.496094,
2010-05-06, 01:44:05,VALID,913.746,VALID,0,VALID,97.3968,VALID,0,VALID,21.2811,VALID,136,VALID,0.277734,
2010-05-06, 01:45:05,VALID,913.735,VALID,0,VALID,97.4044,VALID,0,VALID,21.2648,VALID,136,VALID,0.134375,
2010-05-06, 01:46:05,VALID,913.745,VALID,0,VALID,97.412,VALID,0,VALID,21.2031,VALID,136,VALID,0.417188,
2010-05-06, 01:47:05,VALID,913.74,VALID,0,VALID,97.4196,VALID,0,VALID,21.2031,VALID,136,VALID,0.235156,
2010-05-06, 01:48:05,VALID,913.701,VALID,0,VALID,97.4349,VALID,0,VALID,21.1836,VALID,136,VALID,0.490625,
2010-05-06, 01:49:05,VALID,913.736,VALID,0,VALID,97.3968,VALID,0,VALID,21.2632,VALID,136,VALID,0.467187,
2010-05-06, 01:50:05,VALID,913.698,VALID,0,VALID,97.4196,VALID,0,VALID,21.2226,VALID,136,VALID,0.327344,
2010-05-06, 01:51:05,VALID,913.673,VALID,0,VALID,97.412,VALID,0,VALID,21.1266,VALID,136,VALID,0.593359,
2010-05-06, 01:52:05,VALID,913.653,VALID,0,VALID,97.4196,VALID,0,VALID,21.1461,VALID,136,VALID,0.561719,
2010-05-06, 01:53:05,VALID,913.66,VALID,0,VALID,97.412,VALID,0,VALID,21.125,VALID,136,VALID,0.720312,
2010-05-06, 01:54:05,VALID,913.633,VALID,0,VALID,97.4196,VALID,0,VALID,21.2047,VALID,136,VALID,0.750781,
2010-05-06, 01:55:05,VALID,913.611,VALID,0,VALID,97.4349,VALID,0,VALID,21.2632,VALID,136,VALID,0.866016,
2010-05-06, 01:56:05,VALID,913.591,VALID,0,VALID,97.412,VALID,0,VALID,21.3022,VALID,136,VALID,0.670703,
2010-05-06, 01:57:05,VALID,913.575,VALID,0,VALID,97.4273,VALID,0,VALID,21.3608,VALID,136,VALID,0.590234,
2010-05-06, 01:58:05,VALID,913.529,VALID,0,VALID,97.4501,VALID,0,VALID,21.3591,VALID,136,VALID,0.869141,
2010-05-06, 01:59:05,VALID,913.483,VALID,0,VALID,97.4273,VALID,0,VALID,21.4193,VALID,136,VALID,0.932422,
2010-05-06, 02:00:05,VALID,913.481,VALID,0,VALID,97.4273,VALID,0,VALID,21.3981,VALID,136,VALID,0.95,
2010-05-06, 02:01:05,VALID,913.478,VALID,0,VALID,97.4273,VALID,0,VALID,21.3998,VALID,136,VALID,0.735937,
2010-05-06, 02:02:05,VALID,913.478,VALID,0,VALID,97.4425,VALID,0,VALID,21.3608,VALID,136,VALID,0.585156,
2010-05-06, 02:03:05,VALID,913.44,VALID,0,VALID,97.4273,VALID,0,VALID,21.3412,VALID,136,VALID,0.571484,
2010-05-06, 02:04:05,VALID,913.424,VALID,0,VALID,97.4273,VALID,0,VALID,21.3217,VALID,136,VALID,0.579687,
2010-05-06, 02:05:05,VALID,913.41,VALID,0,VALID,97.4425,VALID,0,VALID,21.3217,VALID,136,VALID,0.408594,
2010-05-06, 02:06:05,VALID,913.446,VALID,0,VALID,97.4425,VALID,0,VALID,21.2827,VALID,136,VALID,0.5375,
2010-05-06, 02:07:05,VALID,913.396,VALID,0,VALID,97.4349,VALID,0,VALID,21.2827,VALID,136,VALID,0.583594,
2010-05-06, 02:08:05,VALID,913.432,VALID,0,VALID,97.4349,VALID,0,VALID,21.2827,VALID,136,VALID,0.405469,
2010-05-06, 02:09:05,VALID,913.453,VALID,0,VALID,97.4349,VALID,0,VALID,21.2827,VALID,136,VALID,0.337891,
2010-05-06, 02:10:05,VALID,913.48,VALID,0,VALID,97.4425,VALID,0,VALID,21.2632,VALID,136,VALID,0.331641,
2010-05-06, 02:11:05,VALID,913.449,VALID,0,VALID,97.4425,VALID,0,VALID,21.2843,VALID,136,VALID,0.55,
2010-05-06, 02:12:05,VALID,913.458,VALID,0,VALID,97.4577,VALID,0,VALID,21.2242,VALID,136,VALID,0.521094,
2010-05-06, 02:13:05,VALID,913.473,VALID,0,VALID,97.4577,VALID,0,VALID,21.2242,VALID,136,VALID,0.953906,
2010-05-06, 02:14:05,VALID,913.446,VALID,0,VALID,97.4425,VALID,0,VALID,21.2648,VALID,136,VALID,0.554297,
2010-05-06, 02:15:05,VALID,913.446,VALID,0,VALID,97.4349,VALID,0,VALID,21.2437,VALID,136,VALID,0.496875,
2010-05-06, 02:16:05,VALID,913.446,VALID,0,VALID,97.4349,VALID,0,VALID,21.2437,VALID,136,VALID,0.444531,
2010-05-06, 02:17:05,VALID,913.416,VALID,0,VALID,97.4501,VALID,0,VALID,21.2421,VALID,136,VALID,0.607422,
2010-05-06, 02:18:05,VALID,913.386,VALID,0,VALID,97.4501,VALID,0,VALID,21.2827,VALID,136,VALID,0.6125,
2010-05-06, 02:19:05,VALID,913.366,VALID,0,VALID,97.4577,VALID,0,VALID,21.3201,VALID,136,VALID,0.707031,
2010-05-06, 02:20:05,VALID,913.34,VALID,0,VALID,97.4654,VALID,0,VALID,21.3803,VALID,136,VALID,0.760938,
2010-05-06, 02:21:05,VALID,913.334,VALID,0,VALID,97.4577,VALID,0,VALID,21.3396,VALID,136,VALID,0.659766,
2010-05-06, 02:22:05,VALID,913.335,VALID,0,VALID,97.4501,VALID,0,VALID,21.3412,VALID,136,VALID,0.521094,
2010-05-06, 02:23:05,VALID,913.352,VALID,0,VALID,97.4577,VALID,0,VALID,21.3412,VALID,136,VALID,0.717188,
2010-05-06, 02:24:05,VALID,913.327,VALID,0,VALID,97.4654,VALID,0,VALID,21.3412,VALID,136,VALID,0.578125,
2010-05-06, 02:25:05,VALID,913.381,VALID,0,VALID,97.4654,VALID,0,VALID,21.3412,VALID,136,VALID,0.723828,
2010-05-06, 02:26:05,VALID,913.364,VALID,0,VALID,97.4654,VALID,0,VALID,21.3624,VALID,136,VALID,0.566797,
2010-05-06, 02:27:05,VALID,913.374,VALID,0,VALID,97.4349,VALID,0,VALID,21.3022,VALID,136,VALID,0.555078,
2010-05-06, 02:28:05,VALID,913.379,VALID,0,VALID,97.4654,VALID,0,VALID,21.2242,VALID,136,VALID,0.796484,
2010-05-06, 02:29:05,VALID,913.337,VALID,0,VALID,97.4654,VALID,0,VALID,21.1852,VALID,136,VALID,0.830859,
2010-05-06, 02:30:05,VALID,913.367,VALID,0,VALID,97.4654,VALID,0.107441,VALID,21.125,VALID,133,VALID,1.2293,
2010-05-06, 02:31:05,VALID,913.358,VALID,0,VALID,97.4882,VALID,0.107441,VALID,21.1039,VALID,128,VALID,0.533984,
2010-05-06, 02:32:05,VALID,913.36,VALID,0,VALID,97.4806,VALID,0.107441,VALID,21.086,VALID,128,VALID,0.898438,
2010-05-06, 02:33:05,VALID,913.336,VALID,0,VALID,97.4654,VALID,0.107441,VALID,21.0259,VALID,128,VALID,0.467187,
2010-05-06, 02:34:05,VALID,913.34,VALID,0,VALID,97.473,VALID,0.107441,VALID,21.0665,VALID,128,VALID,0.927344,
2010-05-06, 02:35:05,VALID,913.339,VALID,0,VALID,97.473,VALID,0.107441,VALID,21.047,VALID,128,VALID,0.930469,
2010-05-06, 02:36:05,VALID,913.356,VALID,0,VALID,97.4806,VALID,0.107441,VALID,21.0665,VALID,128,VALID,0.782812,
2010-05-06, 02:37:05,VALID,913.342,VALID,0,VALID,97.4959,VALID,0.107441,VALID,21.0649,VALID,128,VALID,0.827734,
2010-05-06, 02:38:05,VALID,913.373,VALID,0,VALID,97.4806,VALID,0.107441,VALID,21.0649,VALID,128,VALID,0.914063,
2010-05-06, 02:39:05,VALID,913.37,VALID,0,VALID,97.4959,VALID,0.107441,VALID,21.1055,VALID,128,VALID,0.462109,
2010-05-06, 02:40:05,VALID,913.364,VALID,0,VALID,97.4806,VALID,0,VALID,21.086,VALID,128,VALID,0.537891,
2010-05-06, 02:41:05,VALID,913.381,VALID,0,VALID,97.4882,VALID,0,VALID,21.164,VALID,128,VALID,1.1625,
2010-05-06, 02:42:05,VALID,913.373,VALID,0,VALID,97.4882,VALID,0,VALID,21.2047,VALID,128,VALID,0.530859,
2010-05-06, 02:43:05,VALID,913.356,VALID,0,VALID,97.5035,VALID,0.107441,VALID,21.1429,VALID,128,VALID,0.577734,
2010-05-06, 02:44:05,VALID,913.378,VALID,0,VALID,97.4959,VALID,0,VALID,21.164,VALID,128,VALID,0.262109,
2010-05-06, 02:45:05,VALID,913.311,VALID,0,VALID,97.4882,VALID,0,VALID,21.125,VALID,128,VALID,0.614844,
2010-05-06, 02:46:05,VALID,913.361,VALID,0,VALID,97.4806,VALID,0,VALID,21.1852,VALID,128,VALID,0.578125,
2010-05-06, 02:47:05,VALID,913.358,VALID,0,VALID,97.4959,VALID,0,VALID,21.1673,VALID,128,VALID,0.311328,
2010-05-06, 02:48:05,VALID,913.34,VALID,0,VALID,97.4806,VALID,0,VALID,21.1657,VALID,128,VALID,0,
2010-05-06, 02:49:05,VALID,913.355,VALID,0,VALID,97.5035,VALID,0,VALID,21.1445,VALID,128,VALID,0,
2010-05-06, 02:50:05,VALID,913.372,VALID,0,VALID,97.4806,VALID,0,VALID,21.2047,VALID,128,VALID,0,
2010-05-06, 02:51:05,VALID,913.378,VALID,0,VALID,97.473,VALID,0,VALID,21.2047,VALID,128,VALID,0,
2010-05-06, 02:52:05,VALID,913.413,VALID,0,VALID,97.4882,VALID,0,VALID,21.2047,VALID,128,VALID,0,
2010-05-06, 02:53:05,VALID,913.433,VALID,0,VALID,97.4806,VALID,0,VALID,21.2242,VALID,128,VALID,0.465625,
2010-05-06, 02:54:05,VALID,913.418,VALID,0,VALID,97.5035,VALID,0,VALID,21.2226,VALID,128,VALID,0.632422,
2010-05-06, 02:55:05,VALID,913.429,VALID,0,VALID,97.4959,VALID,0,VALID,21.2437,VALID,128,VALID,0.411719,
2010-05-06, 02:56:05,VALID,913.413,VALID,0,VALID,97.4959,VALID,0,VALID,21.2437,VALID,128,VALID,1.01914,
2010-05-06, 02:57:05,VALID,913.395,VALID,0,VALID,97.4882,VALID,0,VALID,21.2242,VALID,128,VALID,0.554297,
2010-05-06, 02:58:05,VALID,913.406,VALID,0,VALID,97.473,VALID,0,VALID,21.2242,VALID,128,VALID,0.633984,
2010-05-06, 02:59:05,VALID,913.37,VALID,0,VALID,97.5264,VALID,0,VALID,21.2047,VALID,128,VALID,0.576172,
2010-05-06, 03:00:05,VALID,913.364,VALID,0,VALID,97.4959,VALID,0,VALID,21.2047,VALID,128,VALID,0.567578,
2010-05-06, 03:01:05,VALID,913.319,VALID,0,VALID,97.4959,VALID,0,VALID,21.2632,VALID,128,VALID,0.51875,
2010-05-06, 03:02:05,VALID,913.337,VALID,0,VALID,97.4806,VALID,0,VALID,21.3022,VALID,128,VALID,0.585938,
2010-05-06, 03:03:05,VALID,913.287,VALID,0,VALID,97.473,VALID,0,VALID,21.3022,VALID,128,VALID,0.647266,
2010-05-06, 03:04:05,VALID,913.301,VALID,0,VALID,97.5035,VALID,0,VALID,21.2827,VALID,128,VALID,0.919922,
2010-05-06, 03:05:05,VALID,913.314,VALID,0,VALID,97.4882,VALID,0,VALID,21.2827,VALID,128,VALID,0.890234,
2010-05-06, 03:06:05,VALID,913.256,VALID,0,VALID,97.4882,VALID,0,VALID,21.2827,VALID,128,VALID,0.658203,
2010-05-06, 03:07:05,VALID,913.259,VALID,0,VALID,97.4882,VALID,0,VALID,21.3217,VALID,128,VALID,0.708203,
2010-05-06, 03:08:05,VALID,913.245,VALID,0,VALID,97.4806,VALID,0,VALID,21.3412,VALID,128,VALID,0.651172,
2010-05-06, 03:09:05,VALID,913.257,VALID,0,VALID,97.5035,VALID,0,VALID,21.3217,VALID,128,VALID,0.796484,
2010-05-06, 03:10:05,VALID,913.264,VALID,0,VALID,97.5035,VALID,0,VALID,21.3217,VALID,128,VALID,0.492188,
2010-05-06, 03:11:05,VALID,913.279,VALID,0,VALID,97.473,VALID,0,VALID,21.3022,VALID,128,VALID,0.63125,
2010-05-06, 03:12:05,VALID,913.257,VALID,0,VALID,97.4806,VALID,0,VALID,21.2632,VALID,128,VALID,0.671484,
2010-05-06, 03:13:05,VALID,913.262,VALID,0,VALID,97.4959,VALID,0,VALID,21.2437,VALID,128,VALID,0.560547,
2010-05-06, 03:14:05,VALID,913.256,VALID,0,VALID,97.4959,VALID,0,VALID,21.2437,VALID,128,VALID,0.88125,
2010-05-06, 03:15:05,VALID,913.228,VALID,0,VALID,97.4882,VALID,0.107441,VALID,21.2226,VALID,128,VALID,1.11758,
2010-05-06, 03:16:05,VALID,913.242,VALID,0,VALID,97.4882,VALID,0,VALID,21.2421,VALID,5,VALID,1.14766,
2010-05-06, 03:17:05,VALID,913.241,VALID,0,VALID,97.473,VALID,0,VALID,21.2421,VALID,357,VALID,1.05469,
2010-05-06, 03:18:05,VALID,913.243,VALID,0,VALID,97.5035,VALID,0.107441,VALID,21.2811,VALID,323,VALID,0.704687,
2010-05-06, 03:19:05,VALID,913.279,VALID,0,VALID,97.4959,VALID,0.107441,VALID,21.2811,VALID,323,VALID,0.167187,
2010-05-06, 03:20:05,VALID,913.263,VALID,0,VALID,97.4806,VALID,0,VALID,21.3006,VALID,323,VALID,0.140625,
2010-05-06, 03:21:05,VALID,913.25,VALID,0,VALID,97.5035,VALID,0,VALID,21.2616,VALID,323,VALID,0.128516,
2010-05-06, 03:22:05,VALID,913.293,VALID,0,VALID,97.4959,VALID,0,VALID,21.2632,VALID,323,VALID,0.325781,
2010-05-06, 03:23:05,VALID,913.331,VALID,0,VALID,97.5264,VALID,0,VALID,21.2421,VALID,323,VALID,0.832422,
2010-05-06, 03:24:05,VALID,913.316,VALID,0,VALID,97.4959,VALID,0,VALID,21.2031,VALID,304,VALID,0.982813,
2010-05-06, 03:25:05,VALID,913.306,VALID,0,VALID,97.4882,VALID,0,VALID,21.2031,VALID,190,VALID,0.911328,
2010-05-06, 03:26:04,VALID,913.33,VALID,0,VALID,97.4882,VALID,0,VALID,21.2226,VALID,190,VALID,0.796875,
2010-05-06, 03:27:04,VALID,913.295,VALID,0,VALID,97.5035,VALID,0,VALID,21.2632,VALID,190,VALID,0.485938,
2010-05-06, 03:28:04,VALID,913.334,VALID,0,VALID,97.5035,VALID,0,VALID,21.2226,VALID,190,VALID,0.316797,
2010-05-06, 03:29:04,VALID,913.34,VALID,0,VALID,97.4806,VALID,0,VALID,21.2421,VALID,190,VALID,0.296484,
2010-05-06, 03:30:04,VALID,913.343,VALID,0,VALID,97.4959,VALID,0,VALID,21.2226,VALID,190,VALID,0.316016,
2010-05-06, 03:31:04,VALID,913.354,VALID,0,VALID,97.5035,VALID,0,VALID,21.2437,VALID,190,VALID,0.216406,
2010-05-06, 03:32:04,VALID,913.353,VALID,0,VALID,97.4882,VALID,0,VALID,21.2437,VALID,190,VALID,0.102344,
2010-05-06, 03:33:04,VALID,913.35,VALID,0,VALID,97.5111,VALID,0,VALID,21.3038,VALID,190,VALID,0,
2010-05-06, 03:34:04,VALID,913.347,VALID,0,VALID,97.4959,VALID,0,VALID,21.3022,VALID,190,VALID,0.173438,
2010-05-06, 03:35:04,VALID,913.343,VALID,0,VALID,97.5187,VALID,0,VALID,21.3022,VALID,190,VALID,0.569922,
2010-05-06, 03:36:04,VALID,913.357,VALID,0,VALID,97.4959,VALID,0,VALID,21.3022,VALID,190,VALID,0.00195313,
2010-05-06, 03:37:04,VALID,913.328,VALID,0,VALID,97.4882,VALID,0,VALID,21.3022,VALID,190,VALID,0.565625,
2010-05-06, 03:38:04,VALID,913.358,VALID,0,VALID,97.4806,VALID,0,VALID,21.2827,VALID,190,VALID,0.639063,
2010-05-06, 03:39:04,VALID,913.313,VALID,0,VALID,97.5035,VALID,0,VALID,21.2632,VALID,190,VALID,0.699219,
2010-05-06, 03:40:04,VALID,913.278,VALID,0,VALID,97.5264,VALID,0,VALID,21.3022,VALID,190,VALID,0.148828,
2010-05-06, 03:41:04,VALID,913.273,VALID,0,VALID,97.4882,VALID,0,VALID,21.3217,VALID,190,VALID,0.205469,
2010-05-06, 03:42:04,VALID,913.276,VALID,0,VALID,97.4959,VALID,0,VALID,21.3412,VALID,190,VALID,0.134375,
2010-05-06, 03:43:04,VALID,913.22,VALID,0,VALID,97.5035,VALID,0,VALID,21.3217,VALID,190,VALID,0.401953,